| time (UTC) | temp F | wind direction | speed MPH | gust MPH | rain 1hr in | rain 24hr in | rain mn in | humidity % | barometer mb |
| 20260904040004 | 72 | 285 | 5.0 | 11.0 | 0.00 | 0.00 | 0.00 | 51 | 1019.5 |
| 20260904035503 | 72 | 220 | 6.0 | 13.0 | 0.00 | 0.00 | 0.00 | 51 | 1019.6 |
| 20260904033503 | 72 | 189 | 5.0 | 12.0 | 0.00 | 0.00 | 0.00 | 49 | 1019.3 |
| 20260904033004 | 72 | 204 | 10.0 | 14.0 | 0.00 | 0.00 | 0.00 | 49 | 1019.6 |
| 20260904032504 | 72 | 191 | 10.0 | 18.0 | 0.00 | 0.00 | 0.00 | 49 | 1019.6 |
| 20260904032003 | 72 | 211 | 15.0 | 17.0 | 0.00 | 0.00 | 0.00 | 48 | 1019.3 |
| 20260904031503 | 72 | 180 | 13.0 | 18.0 | 0.00 | 0.00 | 0.00 | 49 | 1019.4 |
| 20260904031004 | 72 | 226 | 10.0 | 16.0 | 0.00 | 0.00 | 0.00 | 49 | 1019.3 |
| 20260904030503 | 72 | 191 | 9.0 | 12.0 | 0.00 | 0.00 | 0.00 | 49 | 1019.3 |
| 20260904030004 | 72 | 185 | 8.0 | 11.0 | 0.00 | 0.00 | 0.00 | 49 | 1019.5 |
| 20260904025504 | 72 | 218 | 9.0 | 15.0 | 0.00 | 0.00 | 0.00 | 49 | 1019.5 |
| 20260904025004 | 72 | 199 | 8.0 | 9.0 | 0.00 | 0.00 | 0.00 | 50 | 1019.3 |
| 20260904024504 | 72 | 199 | 6.0 | 13.0 | 0.00 | 0.00 | 0.00 | 50 | 1019.2 |
| 20260904024004 | 72 | 197 | 9.0 | 15.0 | 0.00 | 0.00 | 0.00 | 50 | 1019.3 |
| 20260904023504 | 72 | 218 | 8.0 | 14.0 | 0.00 | 0.00 | 0.00 | 50 | 1019.3 |
| 20260904023004 | 72 | 218 | 6.0 | 11.0 | 0.00 | 0.00 | 0.00 | 51 | 1019.0 |
| 20260904022504 | 72 | 217 | 11.0 | 11.0 | 0.00 | 0.00 | 0.00 | 51 | 1019.3 |
| 20260904022003 | 72 | 188 | 5.0 | 9.0 | 0.00 | 0.00 | 0.00 | 51 | 1019.2 |
| 20260904021503 | 72 | 184 | 8.0 | 10.0 | 0.00 | 0.00 | 0.00 | 51 | 1019.0 |
| 20260904021004 | 73 | 175 | 4.0 | 12.0 | 0.00 | 0.00 | 0.00 | 50 | 1019.2 |
| 20260904015004 | 74 | 198 | 5.0 | 12.0 | 0.00 | 0.00 | 0.00 | 48 | 1019.0 |
| 20260904014504 | 74 | 206 | 16.0 | 17.0 | 0.00 | 0.00 | 0.00 | 47 | 1019.0 |
| 20260904014004 | 74 | 213 | 12.0 | 21.0 | 0.00 | 0.00 | 0.00 | 46 | 1019.0 |
| 20260904012004 | 76 | 206 | 9.0 | 11.0 | 0.00 | 0.00 | 0.00 | 45 | 1019.0 |
| 20260904011504 | 76 | 163 | 5.0 | 17.0 | 0.00 | 0.00 | 0.00 | 45 | 1018.8 |
| 20260904011004 | 76 | 182 | 4.0 | 19.0 | 0.00 | 0.00 | 0.00 | 45 | 1018.9 |
| 20260904010504 | 76 | 198 | 9.0 | 18.0 | 0.00 | 0.00 | 0.00 | 45 | 1019.2 |
| 20260904010004 | 76 | 200 | 20.0 | 25.0 | 0.00 | 0.00 | 0.00 | 44 | 1019.0 |
| 20260904005504 | 76 | 209 | 17.0 | 22.0 | 0.00 | 0.00 | 0.00 | 43 | 1019.0 |
| 20260904005003 | 76 | 180 | 13.0 | 25.0 | 0.00 | 0.00 | 0.00 | 44 | 1019.2 |
| 20260904004503 | 78 | 203 | 8.0 | 20.0 | 0.00 | 0.00 | 0.00 | 42 | 1019.0 |
| 20260904004003 | 77 | 167 | 6.0 | 14.0 | 0.00 | 0.00 | 0.00 | 45 | 1019.3 |
| 20260904003504 | 77 | 181 | 12.0 | 15.0 | 0.00 | 0.00 | 0.00 | 45 | 1019.2 |
| 20260904003004 | 77 | 185 | 10.0 | 26.0 | 0.00 | 0.00 | 0.00 | 45 | 1019.4 |
| 20260904002504 | 78 | 228 | 16.0 | 16.0 | 0.00 | 0.00 | 0.00 | 44 | 1019.2 |
| 20260904002004 | 77 | 218 | 11.0 | 26.0 | 0.00 | 0.00 | 0.00 | 45 | 1019.4 |
| 20260904001504 | 78 | 190 | 8.0 | 14.0 | 0.00 | 0.00 | 0.00 | 43 | 1019.3 |
| 20260904001004 | 78 | 205 | 3.0 | 16.0 | 0.00 | 0.00 | 0.00 | 43 | 1019.3 |
| 20260903235004 | 78 | 162 | 5.0 | 19.0 | 0.00 | 0.00 | 0.00 | 43 | 1019.2 |
| 20260903234504 | 78 | 216 | 8.0 | 12.0 | 0.00 | 0.00 | 0.00 | 44 | 1019.4 |
| 20260903234004 | 78 | 183 | 15.0 | 16.0 | 0.00 | 0.00 | 0.00 | 43 | 1019.3 |
| 20260903233503 | 78 | 186 | 12.0 | 22.0 | 0.00 | 0.00 | 0.00 | 44 | 1019.0 |
| 20260903233003 | 78 | 154 | 10.0 | 14.0 | 0.00 | 0.00 | 0.00 | 44 | 1019.3 |
| 20260903232503 | 78 | 165 | 7.0 | 19.0 | 0.00 | 0.00 | 0.00 | 44 | 1019.2 |
| 20260903232004 | 78 | 173 | 10.0 | 21.0 | 0.00 | 0.00 | 0.00 | 43 | 1019.3 |
| 20260903231504 | 79 | 155 | 8.0 | 19.0 | 0.00 | 0.00 | 0.00 | 42 | 1019.4 |
| 20260903231004 | 80 | 212 | 10.0 | 11.0 | 0.00 | 0.00 | 0.00 | 40 | 1019.4 |
| 20260903230504 | 79 | 136 | 10.0 | 18.0 | 0.00 | 0.00 | 0.00 | 41 | 1019.4 |
| 20260903230004 | 78 | 179 | 9.0 | 17.0 | 0.00 | 0.00 | 0.00 | 43 | 1019.6 |
| 20260903225504 | 77 | 180 | 11.0 | 16.0 | 0.00 | 0.00 | 0.00 | 44 | 1019.7 |
| 20260903225003 | 77 | 220 | 10.0 | 17.0 | 0.00 | 0.00 | 0.00 | 43 | 1019.6 |
| 20260903224503 | 76 | 214 | 8.0 | 10.0 | 0.00 | 0.00 | 0.00 | 44 | 1019.7 |
| 20260903224004 | 76 | 207 | 8.0 | 24.0 | 0.00 | 0.00 | 0.00 | 44 | 1019.7 |
| 20260903223503 | 77 | 238 | 9.0 | 12.0 | 0.00 | 0.00 | 0.00 | 44 | 1019.8 |
| 20260903223004 | 76 | 191 | 11.0 | 21.0 | 0.00 | 0.00 | 0.00 | 45 | 1019.9 |
| 20260903222503 | 76 | 177 | 6.0 | 19.0 | 0.00 | 0.00 | 0.00 | 45 | 1019.8 |
| 20260903222003 | 78 | 203 | 14.0 | 19.0 | 0.00 | 0.00 | 0.00 | 44 | 1019.8 |
| 20260903221504 | 77 | 194 | 7.0 | 19.0 | 0.00 | 0.00 | 0.00 | 45 | 1019.9 |
| 20260903221003 | 76 | 211 | 8.0 | 16.0 | 0.00 | 0.00 | 0.00 | 45 | 1020.0 |
| 20260903220503 | 78 | 167 | 6.0 | 19.0 | 0.00 | 0.00 | 0.00 | 43 | 1020.1 |
| 20260903220004 | 77 | 185 | 8.0 | 14.0 | 0.00 | 0.00 | 0.00 | 45 | 1020.1 |
| 20260903215504 | 77 | 184 | 7.0 | 16.0 | 0.00 | 0.00 | 0.00 | 45 | 1020.1 |
| 20260903215004 | 77 | 119 | 9.0 | 11.0 | 0.00 | 0.00 | 0.00 | 46 | 1020.2 |
| 20260903214504 | 80 | 136 | 19.0 | 23.0 | 0.00 | 0.00 | 0.00 | 43 | 1020.2 |
| 20260903212503 | 76 | 213 | 9.0 | 13.0 | 0.00 | 0.00 | 0.00 | 47 | 1020.3 |
| 20260903212003 | 78 | 168 | 8.0 | 20.0 | 0.00 | 0.00 | 0.00 | 43 | 1020.3 |
| 20260903211503 | 78 | 131 | 20.0 | 22.0 | 0.00 | 0.00 | 0.00 | 42 | 1020.4 |
| 20260903211003 | 76 | 155 | 10.0 | 14.0 | 0.00 | 0.00 | 0.00 | 45 | 1020.5 |
| 20260903210503 | 78 | 218 | 6.0 | 12.0 | 0.00 | 0.00 | 0.00 | 44 | 1020.2 |
| 20260903210004 | 77 | 225 | 11.0 | 20.0 | 0.00 | 0.00 | 0.00 | 45 | 1020.4 |
| 20260903205503 | 76 | 189 | 11.0 | 19.0 | 0.00 | 0.00 | 0.00 | 46 | 1020.5 |
| 20260903205003 | 76 | 209 | 18.0 | 29.0 | 0.00 | 0.00 | 0.00 | 44 | 1020.4 |
| 20260903204504 | 77 | 204 | 9.0 | 22.0 | 0.00 | 0.00 | 0.00 | 42 | 1020.4 |
| 20260903204004 | 77 | 248 | 13.0 | 23.0 | 0.00 | 0.00 | 0.00 | 41 | 1020.6 |
| 20260903203504 | 77 | 180 | 9.0 | 20.0 | 0.00 | 0.00 | 0.00 | 43 | 1020.4 |
| 20260903203004 | 76 | 186 | 10.0 | 25.0 | 0.00 | 0.00 | 0.00 | 44 | 1020.6 |
| 20260903202503 | 78 | 221 | 25.0 | 26.0 | 0.00 | 0.00 | 0.00 | 42 | 1020.5 |
| 20260903202003 | 78 | 185 | 13.0 | 22.0 | 0.00 | 0.00 | 0.00 | 41 | 1020.6 |
| 20260903201503 | 76 | 154 | 3.0 | 19.0 | 0.00 | 0.00 | 0.00 | 46 | 1020.6 |
| 20260903201003 | 76 | 210 | 7.0 | 22.0 | 0.00 | 0.00 | 0.00 | 45 | 1020.6 |
| 20260903200503 | 76 | 180 | 10.0 | 14.0 | 0.00 | 0.00 | 0.00 | 45 | 1020.5 |
| 20260903200003 | 78 | 228 | 2.0 | 10.0 | 0.00 | 0.00 | 0.00 | 44 | 1020.5 |
| 20260903195503 | 76 | 191 | 9.0 | 19.0 | 0.00 | 0.00 | 0.00 | 47 | 1020.7 |
| 20260903195004 | 76 | 180 | 11.0 | 21.0 | 0.00 | 0.00 | 0.00 | 46 | 1020.8 |
| 20260903194504 | 76 | 149 | 10.0 | 15.0 | 0.00 | 0.00 | 0.00 | 46 | 1020.7 |
| 20260903194003 | 77 | 162 | 7.0 | 15.0 | 0.00 | 0.00 | 0.00 | 45 | 1020.9 |
| 20260903193504 | 77 | 212 | 7.0 | 13.0 | 0.00 | 0.00 | 0.00 | 45 | 1020.9 |
| 20260903193004 | 75 | 234 | 11.0 | 19.0 | 0.00 | 0.00 | 0.00 | 47 | 1020.8 |
| 20260903192504 | 76 | 243 | 14.0 | 18.0 | 0.00 | 0.00 | 0.00 | 45 | 1020.8 |
| 20260903192004 | 78 | 193 | 8.0 | 20.0 | 0.00 | 0.00 | 0.00 | 43 | 1020.9 |
| 20260903190003 | 78 | 105 | 5.0 | 15.0 | 0.00 | 0.00 | 0.00 | 44 | 1021.1 |
| 20260903185503 | 76 | 145 | 8.0 | 17.0 | 0.00 | 0.00 | 0.00 | 44 | 1021.3 |
| 20260903185004 | 77 | 165 | 6.0 | 15.0 | 0.00 | 0.00 | 0.00 | 44 | 1021.4 |
| 20260903184504 | 77 | 146 | 6.0 | 9.0 | 0.00 | 0.00 | 0.00 | 44 | 1021.4 |
| 20260903184004 | 76 | 182 | 16.0 | 19.0 | 0.00 | 0.00 | 0.00 | 44 | 1021.6 |
| 20260903183504 | 76 | 231 | 17.0 | 24.0 | 0.00 | 0.00 | 0.00 | 44 | 1021.4 |
| 20260903181504 | 77 | 233 | 5.0 | 21.0 | 0.00 | 0.00 | 0.00 | 42 | 1021.7 |
| 20260903181004 | 76 | 200 | 12.0 | 22.0 | 0.00 | 0.00 | 0.00 | 42 | 1021.6 |
| 20260903180504 | 76 | 136 | 17.0 | 24.0 | 0.00 | 0.00 | 0.00 | 42 | 1021.7 |
| 20260903180003 | 77 | 117 | 9.0 | 14.0 | 0.00 | 0.00 | 0.00 | 41 | 1021.5 |
| 20260903175504 | 76 | 145 | 10.0 | 13.0 | 0.00 | 0.00 | 0.00 | 41 | 1021.8 |
| 20260903175003 | 76 | 126 | 3.0 | 20.0 | 0.00 | 0.00 | 0.00 | 42 | 1022.0 |
| 20260903174503 | 77 | 143 | 8.0 | 18.0 | 0.00 | 0.00 | 0.00 | 41 | 1021.8 |
| 20260903174004 | 75 | 171 | 7.0 | 13.0 | 0.00 | 0.00 | 0.00 | 42 | 1021.8 |
| 20260903173504 | 74 | 193 | 8.0 | 23.0 | 0.00 | 0.00 | 0.00 | 43 | 1021.9 |
| 20260903173004 | 74 | 205 | 12.0 | 21.0 | 0.00 | 0.00 | 0.00 | 43 | 1021.8 |
| 20260903172504 | 75 | 154 | 11.0 | 19.0 | 0.00 | 0.00 | 0.00 | 42 | 1021.8 |
| 20260903172004 | 74 | 153 | 8.0 | 20.0 | 0.00 | 0.00 | 0.00 | 44 | 1021.7 |
| 20260903171504 | 74 | 156 | 9.0 | 15.0 | 0.00 | 0.00 | 0.00 | 44 | 1021.8 |
| 20260903171004 | 74 | 207 | 15.0 | 24.0 | 0.00 | 0.00 | 0.00 | 44 | 1021.9 |
| 20260903170504 | 75 | 169 | 11.0 | 18.0 | 0.00 | 0.00 | 0.00 | 43 | 1021.8 |
| 20260903170004 | 76 | 199 | 12.0 | 13.0 | 0.00 | 0.00 | 0.00 | 42 | 1021.7 |
| 20260903165503 | 75 | 151 | 7.0 | 12.0 | 0.00 | 0.00 | 0.00 | 43 | 1021.7 |
| 20260903165003 | 74 | 191 | 6.0 | 16.0 | 0.00 | 0.00 | 0.00 | 44 | 1021.8 |
| 20260903164503 | 73 | 197 | 14.0 | 19.0 | 0.00 | 0.00 | 0.00 | 45 | 1021.9 |
| 20260903164004 | 73 | 185 | 16.0 | 23.0 | 0.00 | 0.00 | 0.00 | 45 | 1021.8 |
| 20260903163504 | 74 | 181 | 10.0 | 20.0 | 0.00 | 0.00 | 0.00 | 44 | 1021.6 |
| 20260903163004 | 73 | 207 | 6.0 | 17.0 | 0.00 | 0.00 | 0.00 | 45 | 1021.6 |
| 20260903162504 | 74 | 144 | 10.0 | 17.0 | 0.00 | 0.00 | 0.00 | 43 | 1021.7 |
| 20260903162004 | 74 | 139 | 6.0 | 10.0 | 0.00 | 0.00 | 0.00 | 44 | 1021.7 |
| 20260903161504 | 73 | 196 | 10.0 | 11.0 | 0.00 | 0.00 | 0.00 | 44 | 1021.7 |
| 20260903161003 | 73 | 228 | 10.0 | 14.0 | 0.00 | 0.00 | 0.00 | 44 | 1021.7 |
| 20260903160503 | 72 | 213 | 13.0 | 17.0 | 0.00 | 0.00 | 0.00 | 45 | 1021.6 |
| 20260903160005 | 73 | 190 | 8.0 | 12.0 | 0.00 | 0.00 | 0.00 | 44 | 1021.7 |
| 20260903154504 | 73 | 111 | 8.0 | 10.0 | 0.00 | 0.00 | 0.00 | 43 | 1021.8 |
| 20260903154004 | 72 | 139 | 9.0 | 16.0 | 0.00 | 0.00 | 0.00 | 44 | 1021.6 |
| 20260903153504 | 73 | 177 | 3.0 | 6.0 | 0.00 | 0.00 | 0.00 | 44 | 1021.6 |
| 20260903153004 | 72 | 124 | 3.0 | 3.0 | 0.00 | 0.00 | 0.00 | 45 | 1021.7 |
| 20260903152503 | 72 | 194 | 14.0 | 15.0 | 0.00 | 0.00 | 0.00 | 44 | 1021.8 |
| 20260903152004 | 71 | 127 | 8.0 | 9.0 | 0.00 | 0.00 | 0.00 | 45 | 1021.6 |
| 20260903151503 | 71 | 169 | 3.0 | 4.0 | 0.00 | 0.00 | 0.00 | 46 | 1021.5 |
| 20260903151003 | 71 | 169 | 3.0 | 4.0 | 0.00 | 0.00 | 0.00 | 46 | 1021.6 |
| 20260903150504 | 71 | 226 | 8.0 | 16.0 | 0.00 | 0.00 | 0.00 | 45 | 1021.6 |
| 20260903150004 | 71 | 179 | 7.0 | 15.0 | 0.00 | 0.00 | 0.00 | 46 | 1021.7 |
| 20260903145504 | 70 | 182 | 7.0 | 7.0 | 0.00 | 0.00 | 0.00 | 47 | 1021.6 |
| 20260903145004 | 71 | 163 | 5.0 | 5.0 | 0.00 | 0.00 | 0.00 | 46 | 1021.6 |
| 20260903144504 | 70 | 162 | 3.0 | 5.0 | 0.00 | 0.00 | 0.00 | 47 | 1021.7 |
| 20260903144004 | 69 | 172 | 10.0 | 17.0 | 0.00 | 0.00 | 0.00 | 48 | 1021.6 |
| 20260903143504 | 69 | 172 | 10.0 | 17.0 | 0.00 | 0.00 | 0.00 | 48 | 1021.6 |
| 20260903143004 | 69 | 172 | 10.0 | 17.0 | 0.00 | 0.00 | 0.00 | 48 | 1021.6 |
| 20260903142503 | 68 | 164 | 9.0 | 17.0 | 0.00 | 0.00 | 0.00 | 48 | 1021.5 |
| 20260903142004 | 66 | 196 | 5.0 | 7.0 | 0.00 | 0.00 | 0.00 | 53 | 1021.6 |
| 20260903141503 | 66 | 196 | 5.0 | 7.0 | 0.00 | 0.00 | 0.00 | 53 | 1021.6 |
| 20260903141003 | 66 | 196 | 5.0 | 7.0 | 0.00 | 0.00 | 0.00 | 53 | 1021.6 |
| 20260903140503 | 66 | 196 | 5.0 | 7.0 | 0.00 | 0.00 | 0.00 | 53 | 1021.5 |
| 20260903140003 | 66 | 196 | 5.0 | 7.0 | 0.00 | 0.00 | 0.00 | 53 | 1021.4 |
| 20260903135503 | 66 | 196 | 5.0 | 7.0 | 0.00 | 0.00 | 0.00 | 53 | 1021.4 |
| 20260903135004 | 66 | 196 | 5.0 | 7.0 | 0.00 | 0.00 | 0.00 | 53 | 1021.5 |
| 20260903133004 | 64 | 180 | 4.0 | 5.0 | 0.00 | 0.00 | 0.00 | 51 | 1021.1 |
| 20260903132504 | 64 | 180 | 4.0 | 5.0 | 0.00 | 0.00 | 0.00 | 51 | 1021.3 |
| 20260903132004 | 64 | 180 | 4.0 | 5.0 | 0.00 | 0.00 | 0.00 | 51 | 1021.1 |
| 20260903131504 | 64 | 180 | 4.0 | 5.0 | 0.00 | 0.00 | 0.00 | 51 | 1020.9 |
| 20260903131004 | 64 | 180 | 4.0 | 5.0 | 0.00 | 0.00 | 0.00 | 51 | 1020.8 |
| 20260903130504 | 64 | 180 | 4.0 | 5.0 | 0.00 | 0.00 | 0.00 | 51 | 1020.9 |
| 20260903130003 | 64 | 180 | 4.0 | 5.0 | 0.00 | 0.00 | 0.00 | 51 | 1020.9 |
| 20260903125503 | 64 | 186 | 2.0 | 3.0 | 0.00 | 0.00 | 0.00 | 46 | 1020.8 |
| 20260903125004 | 64 | 186 | 2.0 | 3.0 | 0.00 | 0.00 | 0.00 | 46 | 1020.7 |
| 20260903124503 | 64 | 186 | 2.0 | 3.0 | 0.00 | 0.00 | 0.00 | 46 | 1020.9 |
| 20260903124003 | 64 | 186 | 2.0 | 3.0 | 0.00 | 0.00 | 0.00 | 46 | 1020.8 |
| 20260903123504 | 64 | 186 | 2.0 | 3.0 | 0.00 | 0.00 | 0.00 | 46 | 1020.8 |
| 20260903123004 | 64 | 186 | 2.0 | 3.0 | 0.00 | 0.00 | 0.00 | 46 | 1020.9 |
| 20260903122504 | 64 | 186 | 2.0 | 3.0 | 0.00 | 0.00 | 0.00 | 46 | 1020.8 |
| 20260903122004 | 64 | 186 | 2.0 | 3.0 | 0.00 | 0.00 | 0.00 | 46 | 1020.9 |
| 20260903121504 | 64 | 148 | 2.0 | 3.0 | 0.00 | 0.00 | 0.00 | 45 | 1020.8 |
| 20260903121004 | 65 | 129 | 5.0 | 5.0 | 0.00 | 0.00 | 0.00 | 44 | 1020.8 |
| 20260903120504 | 65 | 206 | 4.0 | 4.0 | 0.00 | 0.00 | 0.00 | 46 | 1020.9 |
| 20260903120004 | 65 | 206 | 4.0 | 4.0 | 0.00 | 0.00 | 0.00 | 46 | 1020.8 |
| 20260903115503 | 65 | 206 | 4.0 | 4.0 | 0.00 | 0.00 | 0.00 | 46 | 1020.5 |
| 20260903113504 | 65 | 206 | 4.0 | 4.0 | 0.00 | 0.00 | 0.00 | 46 | 1020.9 |
| 20260903113004 | 65 | 206 | 4.0 | 4.0 | 0.00 | 0.00 | 0.00 | 46 | 1020.8 |
| 20260903111004 | 63 | 121 | 3.0 | 3.0 | 0.00 | 0.00 | 0.00 | 44 | 1020.7 |
| 20260903110504 | 63 | 121 | 3.0 | 3.0 | 0.00 | 0.00 | 0.00 | 44 | 1020.8 |
| 20260903110003 | 63 | 121 | 3.0 | 3.0 | 0.00 | 0.00 | 0.00 | 44 | 1020.7 |
| 20260903105504 | 63 | 121 | 3.0 | 3.0 | 0.00 | 0.00 | 0.00 | 44 | 1021.0 |
| 20260903105004 | 63 | 121 | 3.0 | 3.0 | 0.00 | 0.00 | 0.00 | 44 | 1020.9 |
| 20260903104504 | 63 | 121 | 3.0 | 3.0 | 0.00 | 0.00 | 0.00 | 44 | 1021.0 |
| 20260903104004 | 63 | 121 | 3.0 | 3.0 | 0.00 | 0.00 | 0.00 | 44 | 1021.0 |
| 20260903103504 | 63 | 121 | 3.0 | 3.0 | 0.00 | 0.00 | 0.00 | 44 | 1021.0 |
| 20260903103003 | 63 | 121 | 3.0 | 3.0 | 0.00 | 0.00 | 0.00 | 44 | 1021.0 |
| 20260903102503 | 63 | 121 | 3.0 | 3.0 | 0.00 | 0.00 | 0.00 | 44 | 1021.3 |
| 20260903102003 | 63 | 279 | 2.0 | 2.0 | 0.00 | 0.00 | 0.00 | 47 | 1021.0 |
| 20260903100504 | 67 | 192 | 3.0 | 7.0 | 0.00 | 0.00 | 0.00 | 41 | 1021.0 |
| 20260903100004 | 67 | 192 | 3.0 | 7.0 | 0.00 | 0.00 | 0.00 | 41 | 1020.9 |
| 20260903095504 | 66 | 184 | 5.0 | 7.0 | 0.00 | 0.00 | 0.00 | 42 | 1021.0 |
| 20260903092503 | 62 | 97 | 4.0 | 4.0 | 0.00 | 0.00 | 0.00 | 40 | 1021.6 |
| 20260903092004 | 62 | 97 | 4.0 | 4.0 | 0.00 | 0.00 | 0.00 | 40 | 1021.4 |
| 20260903091504 | 62 | 97 | 4.0 | 4.0 | 0.00 | 0.00 | 0.00 | 40 | 1021.3 |
| 20260903085503 | 62 | 97 | 4.0 | 4.0 | 0.00 | 0.00 | 0.00 | 40 | 1021.4 |
| 20260903085003 | 62 | 97 | 4.0 | 4.0 | 0.00 | 0.00 | 0.00 | 40 | 1021.1 |
| 20260903084503 | 62 | 97 | 4.0 | 4.0 | 0.00 | 0.00 | 0.00 | 40 | 1021.0 |
| 20260903084004 | 62 | 97 | 4.0 | 4.0 | 0.00 | 0.00 | 0.00 | 40 | 1021.1 |
| 20260903083503 | 62 | 97 | 4.0 | 4.0 | 0.00 | 0.00 | 0.00 | 40 | 1021.3 |
| 20260903083003 | 62 | 97 | 4.0 | 4.0 | 0.00 | 0.00 | 0.00 | 40 | 1021.4 |
| 20260903082503 | 65 | 269 | 3.0 | 3.0 | 0.00 | 0.00 | 0.00 | 32 | 1021.4 |
| 20260903082003 | 65 | 269 | 3.0 | 3.0 | 0.00 | 0.00 | 0.00 | 32 | 1021.4 |
| 20260903081504 | 65 | 269 | 3.0 | 3.0 | 0.00 | 0.00 | 0.00 | 32 | 1021.3 |
| 20260903081003 | 65 | 269 | 3.0 | 3.0 | 0.00 | 0.00 | 0.00 | 32 | 1021.4 |
| 20260903080503 | 65 | 269 | 3.0 | 3.0 | 0.00 | 0.00 | 0.00 | 32 | 1021.6 |
| 20260903080004 | 65 | 269 | 3.0 | 3.0 | 0.00 | 0.00 | 0.00 | 32 | 1021.6 |
| 20260903075503 | 65 | 269 | 3.0 | 3.0 | 0.00 | 0.00 | 0.00 | 32 | 1021.5 |
| 20260903075003 | 65 | 269 | 3.0 | 3.0 | 0.00 | 0.00 | 0.00 | 32 | 1021.7 |
| 20260903074503 | 65 | 269 | 3.0 | 3.0 | 0.00 | 0.00 | 0.00 | 32 | 1021.5 |
| 20260903074004 | 65 | 269 | 3.0 | 3.0 | 0.00 | 0.00 | 0.00 | 32 | 1021.7 |
| 20260903073504 | 65 | 269 | 3.0 | 3.0 | 0.00 | 0.00 | 0.00 | 32 | 1021.6 |
| 20260903073004 | 65 | 269 | 3.0 | 3.0 | 0.00 | 0.00 | 0.00 | 32 | 1021.8 |
| 20260903071003 | 67 | 232 | 4.0 | 4.0 | 0.00 | 0.00 | 0.00 | 33 | 1021.7 |
| 20260903070503 | 67 | 232 | 4.0 | 4.0 | 0.00 | 0.00 | 0.00 | 33 | 1021.6 |
| 20260903070004 | 67 | 232 | 4.0 | 4.0 | 0.00 | 0.00 | 0.00 | 33 | 1021.7 |
| 20260903065504 | 67 | 232 | 4.0 | 4.0 | 0.00 | 0.00 | 0.00 | 33 | 1021.8 |
| 20260903065004 | 67 | 232 | 4.0 | 4.0 | 0.00 | 0.00 | 0.00 | 33 | 1021.8 |
| 20260903064504 | 67 | 232 | 4.0 | 4.0 | 0.00 | 0.00 | 0.00 | 33 | 1021.7 |
| 20260903064003 | 67 | 232 | 4.0 | 4.0 | 0.00 | 0.00 | 0.00 | 33 | 1021.7 |
| 20260903063503 | 67 | 232 | 4.0 | 4.0 | 0.00 | 0.00 | 0.00 | 33 | 1021.8 |
| 20260903063003 | 67 | 232 | 4.0 | 4.0 | 0.00 | 0.00 | 0.00 | 33 | 1021.7 |
| 20260903061004 | 69 | 182 | 7.0 | 8.0 | 0.00 | 0.00 | 0.00 | 32 | 1021.9 |
| 20260903060504 | 69 | 182 | 7.0 | 8.0 | 0.00 | 0.00 | 0.00 | 32 | 1021.8 |
| 20260903060004 | 69 | 182 | 7.0 | 8.0 | 0.00 | 0.00 | 0.00 | 32 | 1021.7 |
| 20260903055504 | 69 | 182 | 7.0 | 8.0 | 0.00 | 0.00 | 0.00 | 32 | 1021.8 |
| 20260903055004 | 69 | 182 | 7.0 | 8.0 | 0.00 | 0.00 | 0.00 | 32 | 1021.7 |
| 20260903054503 | 69 | 182 | 7.0 | 8.0 | 0.00 | 0.00 | 0.00 | 32 | 1021.5 |
| 20260903054003 | 69 | 215 | 9.0 | 9.0 | 0.00 | 0.00 | 0.00 | 33 | 1021.6 |
| 20260903053504 | 69 | 179 | 7.0 | 10.0 | 0.00 | 0.00 | 0.00 | 34 | 1021.5 |
| 20260903053003 | 69 | 179 | 7.0 | 10.0 | 0.00 | 0.00 | 0.00 | 34 | 1021.4 |
| 20260903052503 | 69 | 179 | 7.0 | 10.0 | 0.00 | 0.00 | 0.00 | 34 | 1021.4 |
| 20260903052003 | 69 | 179 | 7.0 | 10.0 | 0.00 | 0.00 | 0.00 | 34 | 1021.5 |